TimeCST,TemperatureF,Dew PointF,Humidity,Sea Level PressureIn,VisibilityMPH,Wind Direction,Wind SpeedMPH,Gust SpeedMPH,PrecipitationIn,Events,Conditions,WindDirDegrees,DateUTC
12:15 AM,18.9,2.3,49,30.19,10.0,East,11.5,-,N/A,,Clear,100,2013-02-20 06:15:00
12:35 AM,18.1,3.2,52,30.18,10.0,East,12.7,18.4,N/A,,Clear,90,2013-02-20 06:35:00
12:55 AM,17.6,3.0,53,30.18,10.0,East,15.0,-,N/A,,Clear,100,2013-02-20 06:55:00
1:15 AM,16.7,3.0,55,30.18,10.0,East,11.5,-,N/A,,Clear,90,2013-02-20 07:15:00
1:35 AM,16.5,2.8,55,30.18,10.0,East,10.4,-,N/A,,Clear,100,2013-02-20 07:35:00
1:55 AM,15.8,2.7,56,30.17,10.0,East,15.0,-,N/A,,Clear,90,2013-02-20 07:55:00
2:15 AM,15.6,2.3,56,30.16,10.0,East,15.0,-,N/A,,Clear,100,2013-02-20 08:15:00
2:35 AM,15.4,2.7,57,30.15,10.0,East,13.8,18.4,N/A,,Clear,100,2013-02-20 08:35:00
3:15 AM,15.1,3.2,59,30.14,10.0,East,12.7,16.1,N/A,,Clear,100,2013-02-20 09:15:00
3:35 AM,14.9,3.0,59,30.14,10.0,East,12.7,-,N/A,,Clear,100,2013-02-20 09:35:00
3:55 AM,14.9,3.0,59,30.13,10.0,East,10.4,18.4,N/A,,Clear,100,2013-02-20 09:55:00
4:15 AM,14.9,3.2,60,30.13,10.0,East,12.7,-,N/A,,Clear,100,2013-02-20 10:15:00
4:35 AM,14.5,3.2,61,30.12,10.0,East,11.5,18.4,N/A,,Clear,100,2013-02-20 10:35:00
4:55 AM,14.0,3.4,63,30.12,10.0,East,10.4,-,N/A,,Clear,100,2013-02-20 10:55:00
5:15 AM,13.8,3.7,64,30.12,10.0,East,11.5,-,N/A,,Clear,100,2013-02-20 11:15:00
5:35 AM,13.3,3.7,66,30.11,10.0,East,11.5,-,N/A,,Clear,100,2013-02-20 11:35:00
5:55 AM,13.1,3.2,65,30.12,10.0,ESE,10.4,-,N/A,,Clear,110,2013-02-20 11:55:00
6:15 AM,12.9,3.0,65,30.12,10.0,East,9.2,-,N/A,,Clear,100,2013-02-20 12:15:00
6:35 AM,12.7,3.2,66,30.12,10.0,East,10.4,-,N/A,,Clear,100,2013-02-20 12:35:00
6:55 AM,12.6,2.8,65,30.12,10.0,ESE,11.5,-,N/A,,Clear,110,2013-02-20 12:55:00
7:15 AM,12.6,3.2,66,30.13,10.0,ESE,10.4,-,N/A,,Scattered Clouds,120,2013-02-20 13:15:00
7:35 AM,13.5,3.2,64,30.13,10.0,ESE,10.4,-,N/A,,Overcast,110,2013-02-20 13:35:00
7:55 AM,14.4,2.7,60,30.13,10.0,ESE,11.5,19.6,N/A,,Overcast,120,2013-02-20 13:55:00
8:15 AM,14.5,2.3,58,30.13,10.0,ESE,13.8,-,N/A,,Overcast,120,2013-02-20 14:15:00
8:35 AM,14.9,2.3,57,30.12,10.0,ESE,17.3,-,N/A,,Overcast,120,2013-02-20 14:35:00
8:55 AM,15.6,2.5,56,30.12,10.0,ESE,16.1,-,N/A,,Overcast,110,2013-02-20 14:55:00
9:15 AM,16.2,2.8,56,30.11,10.0,ESE,16.1,24.2,N/A,,Overcast,110,2013-02-20 15:15:00
9:35 AM,16.9,3.0,55,30.12,10.0,ESE,16.1,24.2,N/A,,Overcast,120,2013-02-20 15:35:00
9:55 AM,17.8,3.4,53,30.12,10.0,ESE,12.7,17.3,N/A,,Overcast,120,2013-02-20 15:55:00
10:15 AM,19.0,3.4,51,30.12,10.0,ESE,13.8,-,N/A,,Overcast,120,2013-02-20 16:15:00
10:35 AM,19.4,3.9,51,30.12,10.0,SE,12.7,-,N/A,Snow,Light Snow,130,2013-02-20 16:35:00
10:55 AM,19.2,8.8,64,30.12,2.0,SE,15.0,24.2,N/A,Snow,Light Snow,130,2013-02-20 16:55:00
11:15 AM,20.1,13.1,74,30.12,1.8,SE,17.3,-,N/A,Snow,Light Snow,130,2013-02-20 17:15:00
11:35 AM,20.7,14.0,75,30.11,1.8,ESE,15.0,-,N/A,Snow,Light Snow,120,2013-02-20 17:35:00
11:55 AM,22.1,14.2,72,30.10,3.0,SE,15.0,-,N/A,Snow,Light Snow,130,2013-02-20 17:55:00
12:15 PM,21.2,15.1,77,30.10,1.8,ESE,17.3,-,N/A,Snow,Light Snow,120,2013-02-20 18:15:00
12:35 PM,21.6,16.7,82,30.08,3.0,ESE,15.0,19.6,N/A,Snow,Light Snow,120,2013-02-20 18:35:00
12:55 PM,22.3,16.9,80,30.07,5.0,ESE,13.8,-,N/A,Snow,Light Snow,120,2013-02-20 18:55:00
1:15 PM,22.1,17.8,83,30.06,2.5,ESE,13.8,18.4,N/A,Snow,Light Snow,110,2013-02-20 19:15:00
1:35 PM,22.1,17.6,83,30.05,1.8,ESE,15.0,21.9,N/A,Snow,Light Snow,120,2013-02-20 19:35:00
1:55 PM,22.1,18.5,86,30.04,1.0,ESE,17.3,-,N/A,Snow,Light Snow,110,2013-02-20 19:55:00
2:15 PM,22.1,18.9,87,30.03,1.8,ESE,17.3,-,N/A,Snow,Light Snow,120,2013-02-20 20:15:00
2:35 PM,22.8,19.2,86,30.02,1.0,ESE,17.3,20.7,N/A,Snow,Light Snow,110,2013-02-20 20:35:00
2:55 PM,23.0,19.9,88,30.01,0.8,ESE,15.0,-,N/A,Snow,Light Snow,110,2013-02-20 20:55:00
3:15 PM,23.9,20.7,87,30.00,1.0,ESE,15.0,20.7,N/A,Snow,Light Snow,120,2013-02-20 21:15:00
3:35 PM,23.7,20.7,88,29.99,1.0,ESE,16.1,-,N/A,Snow,Light Snow,110,2013-02-20 21:35:00
3:55 PM,23.9,20.8,88,29.99,0.8,ESE,16.1,-,N/A,Snow,Light Snow,120,2013-02-20 21:55:00
4:15 PM,23.9,21.0,89,29.98,1.0,ESE,16.1,-,N/A,Snow,Light Snow,110,2013-02-20 22:15:00
4:35 PM,24.6,21.7,89,29.98,1.5,ESE,16.1,-,N/A,Snow,Light Snow,110,2013-02-20 22:35:00
4:55 PM,24.4,21.4,88,29.98,1.2,ESE,13.8,21.9,N/A,Snow,Light Snow,110,2013-02-20 22:55:00
5:15 PM,23.7,21.4,91,29.97,0.8,East,13.8,-,0.01,Snow,Snow,100,2013-02-20 23:15:00
5:35 PM,23.0,20.8,91,29.97,1.0,ESE,15.0,21.9,0.01,Snow,Light Snow,110,2013-02-20 23:35:00
5:55 PM,22.6,20.1,90,29.97,0.2,ESE,17.3,24.2,0.02,Snow,Snow,110,2013-02-20 23:55:00
6:15 PM,22.1,19.6,90,29.97,0.2,East,18.4,24.2,0.01,Snow,Snow,100,2013-02-21 00:15:00
6:35 PM,21.2,18.7,90,29.98,0.2,ESE,16.1,23.0,0.01,Snow,Snow,110,2013-02-21 00:35:00
6:55 PM,20.8,18.1,89,29.98,3.0,ESE,16.1,21.9,0.01,Snow,Light Snow,110,2013-02-21 00:55:00
7:15 PM,20.8,18.3,90,29.99,0.5,ESE,16.1,-,N/A,Snow,Light Snow,110,2013-02-21 01:15:00
7:35 PM,20.7,17.6,88,29.99,3.0,ESE,16.1,21.9,N/A,Snow,Light Snow,110,2013-02-21 01:35:00
7:55 PM,20.1,17.4,89,30.00,2.5,ESE,16.1,-,N/A,Snow,Light Snow,110,2013-02-21 01:55:00
8:15 PM,19.8,17.1,89,30.00,1.2,ESE,12.7,18.4,N/A,Snow,Light Snow,110,2013-02-21 02:15:00
8:35 PM,19.8,17.1,89,30.00,1.5,East,15.0,-,0.01,Snow,Light Snow,100,2013-02-21 02:35:00
8:55 PM,19.8,17.2,90,30.01,2.0,East,15.0,19.6,0.01,Snow,Light Snow,100,2013-02-21 02:55:00
9:15 PM,19.8,17.2,90,30.01,2.0,East,13.8,-,N/A,Snow,Light Snow,100,2013-02-21 03:15:00
9:35 PM,19.8,17.2,90,30.00,4.0,East,15.0,-,N/A,Snow,Light Snow,100,2013-02-21 03:35:00
9:55 PM,19.4,16.7,89,30.01,1.8,East,16.1,21.9,0.01,Snow,Light Snow,100,2013-02-21 03:55:00
10:15 PM,19.2,16.7,90,30.01,1.0,East,13.8,-,N/A,Snow,Snow,100,2013-02-21 04:15:00
10:35 PM,18.9,16.3,90,30.01,0.8,ESE,15.0,19.6,0.01,Snow,Snow,110,2013-02-21 04:35:00
10:55 PM,19.0,16.5,90,30.01,0.8,ESE,16.1,-,0.02,Snow,Snow,110,2013-02-21 04:55:00
11:15 PM,19.4,16.7,89,30.00,0.5,East,16.1,-,0.01,Snow,Snow,100,2013-02-21 05:15:00
11:35 PM,19.4,17.2,91,30.01,0.8,East,12.7,17.3,0.02,Snow,Snow,100,2013-02-21 05:35:00
11:55 PM,19.4,17.1,91,30.01,0.5,ESE,10.4,-,0.03,Snow,Snow,110,2013-02-21 05:55:00